Walla Walla, WA

10:03 AM PDT on July 24, 2017 (GMT -0700)
Walla Walla Regional

Weather History for KALW - November, 2012

Change the Weather History Date:

Thursday, November 29, 2012

  Actual Average Record
Temperature  
Mean Temperature 34 °F 37 °F  
Max Temperature 43 °F 42 °F 60 °F (1977)
Min Temperature 28 °F 32 °F 6 °F (1985)
Degree Days  
Heating Degree Days 30 28  
Month to date heating degree days 666  
Since 1 July heating degree days 1131  
Cooling Degree Days 0 0  
Month to date cooling degree days 0  
Year to date cooling degree days 850  
Moisture  
Dew Point 32 °F    
Average Humidity 96    
Maximum Humidity 100    
Minimum Humidity 87    
Precipitation  
Precipitation 0.14 in 0.09 in 0.48 in (2003)
Month to date precipitation 2.77  
Year to date precipitation 18.28  
Snow  
Snow 0.00 in 0.10 in T in (2005)
Month to date snowfall 1.1  
Year to date snowfall 7.2  
Since 1 July snowfall 1.2  
Snow Depth -    
Sea Level Pressure  
Sea Level Pressure 29.75 in    
Wind  
Wind Speed 3 mph (SW)    
Max Wind Speed 13 mph    
Max Gust Speed -    
Visibility 2 miles    
Events Fog , Rain    
T = Trace of Precipitation, MM = Missing Value Source: NWS Daily Summary

Daily Weather History Graph

Daily Weather History Graph

Search for Another Location

Airport or City:

Trip Planner

Search our weather history database for the weather conditions in past years. The results will help you decide how hot, cold, wet, or windy it might be!

Date:

Astronomy

Nov. 29, 2012 Rise Set
Actual Time 7:13 AM PST 4:09 PM PST
Civil Twilight 6:39 AM PST 4:43 PM PST
Nautical Twilight 6:02 AM PST 5:21 PM PST
Astronomical Twilight 5:26 AM PST 5:57 PM PST
Moon 5:16 PM PST (11/29) 8:04 AM PST (11/29)
Length of Visible Light 10h 04m
Length of Day
8h 56m
Full, 99% of the Moon is Illuminated
Nov 29
Full
Dec 6
Last Quarter
Dec 13
New
Dec 19
First Quarter
Dec 28
Full

Hourly Weather History & Observations

Time (PST) Temp. Windchill Dew Point Humidity Pressure Visibility Wind Dir Wind Speed Gust Speed Precip Events Conditions
12:53 AM 30.9 °F - 28.9 °F 92% 29.91 in 8.0 mi Calm Calm - N/A   Clear
1:53 AM 28.9 °F 22.8 °F 28.0 °F 96% 29.88 in 8.0 mi NNE 5.8 mph - N/A   Clear
2:53 AM 30.0 °F 26.5 °F 28.0 °F 92% 29.91 in 6.0 mi SSW 3.5 mph - N/A   Clear
3:53 AM 30.0 °F 25.2 °F 28.9 °F 96% 29.90 in 7.0 mi SE 4.6 mph - N/A   Clear
4:53 AM 30.0 °F - 28.0 °F 92% 29.88 in 7.0 mi Calm Calm - N/A   Clear
5:49 AM 28.4 °F 24.6 °F 26.6 °F 93% 29.83 in 4.0 mi West 3.5 mph - N/A   Scattered Clouds
5:53 AM 28.9 °F 22.8 °F 27.0 °F 92% 29.87 in 2.0 mi WSW 5.8 mph - N/A   Mostly Cloudy
5:57 AM 28.4 °F - 28.4 °F 100% 29.82 in 0.8 mi Calm Calm - N/A   Mist
6:07 AM 28.4 °F - 28.4 °F 100% 29.82 in 0.2 mi Calm Calm - N/A Fog Light Freezing Fog
6:16 AM 28.4 °F - 28.4 °F 100% 29.82 in 0.2 mi Calm Calm - N/A Fog Light Freezing Fog
6:23 AM 28.4 °F 23.3 °F 28.4 °F 100% 29.82 in 0.2 mi ESE 4.6 mph - N/A Fog Light Freezing Fog
6:37 AM 28.4 °F 23.3 °F 28.4 °F 100% 29.81 in 0.2 mi SSE 4.6 mph - N/A Fog Light Freezing Fog
6:53 AM 28.9 °F 23.9 °F 28.0 °F 96% 29.85 in 0.2 mi South 4.6 mph - N/A Fog Light Freezing Fog
7:01 AM 28.4 °F 22.2 °F 28.4 °F 100% 29.81 in 0.2 mi SSE 5.8 mph - N/A Fog Light Freezing Fog
7:53 AM 30.0 °F - 28.9 °F 96% 29.84 in 0.2 mi Calm Calm - N/A Fog Light Freezing Fog
8:53 AM 30.9 °F 23.5 °F 30.0 °F 96% 29.88 in 0.2 mi South 8.1 mph - N/A Fog Light Freezing Fog
9:14 AM 30.2 °F 23.4 °F 30.2 °F 100% 29.81 in 0.2 mi ESE 6.9 mph - N/A Fog Light Freezing Fog
9:22 AM 32.0 °F 27.5 °F 30.2 °F 93% 29.82 in 1.0 mi Variable 4.6 mph - N/A   Overcast
9:27 AM 32.0 °F 28.7 °F 30.2 °F 93% 29.82 in 3.0 mi South 3.5 mph - N/A   Overcast
9:29 AM 32.0 °F 28.7 °F 30.2 °F 93% 29.81 in 2.0 mi South 3.5 mph - N/A   Overcast
9:53 AM 32.0 °F - 30.9 °F 96% 29.82 in 2.0 mi Calm Calm - N/A   Overcast
10:01 AM 32.0 °F 25.6 °F 30.2 °F 93% 29.79 in 3.0 mi WSW 6.9 mph - N/A   Mostly Cloudy
10:04 AM 32.0 °F 25.6 °F 30.2 °F 93% 29.79 in 2.0 mi WSW 6.9 mph - N/A   Mostly Cloudy
10:22 AM 32.0 °F 25.6 °F 30.2 °F 93% 29.80 in 2.0 mi WSW 6.9 mph - N/A   Mostly Cloudy
10:34 AM 32.0 °F 23.6 °F 30.2 °F 93% 29.77 in 2.0 mi East 10.4 mph - 0.00 in Rain Light Freezing Rain
10:50 AM 33.8 °F 27.0 °F 32.0 °F 93% 29.75 in 5.0 mi East 8.1 mph - 0.00 in Rain Light Freezing Rain
10:53 AM 33.1 °F 30.0 °F 32.0 °F 96% 29.78 in 5.0 mi Variable 3.5 mph - 0.00 in Rain Light Freezing Rain
11:09 AM 33.8 °F 27.7 °F 30.2 °F 87% 29.73 in 4.0 mi North 6.9 mph - 0.00 in   Overcast
11:53 AM 39.0 °F 34.0 °F 37.0 °F 93% 29.75 in 10.0 mi West 6.9 mph - 0.00 in   Overcast
12:04 PM 33.8 °F 24.8 °F 32.0 °F 93% 29.72 in 2.5 mi West 12.7 mph - N/A   Overcast
12:09 PM 33.8 °F 26.4 °F 32.0 °F 93% 29.72 in 0.8 mi West 9.2 mph - N/A   Overcast
12:13 PM 33.8 °F 27.0 °F 32.0 °F 93% 29.72 in 0.2 mi West 8.1 mph - N/A Fog Fog
12:27 PM 33.8 °F 30.8 °F 33.8 °F 100% 29.72 in 1.0 mi WNW 3.5 mph - N/A   Overcast
12:38 PM 33.8 °F - 33.8 °F 100% 29.72 in 3.0 mi Calm Calm - N/A   Mostly Cloudy
12:45 PM 33.8 °F 30.8 °F 33.8 °F 100% 29.72 in 2.0 mi NNE 3.5 mph - N/A   Scattered Clouds
12:53 PM 34.0 °F 31.0 °F 33.1 °F 96% 29.75 in 2.0 mi Variable 3.5 mph - N/A   Scattered Clouds
12:56 PM 33.8 °F - 33.8 °F 100% 29.71 in 1.0 mi Calm Calm - N/A   Mist
1:09 PM 33.8 °F - 33.8 °F 100% 29.71 in 2.0 mi Calm Calm - N/A   Scattered Clouds
1:14 PM 33.8 °F - 33.8 °F 100% 29.71 in 1.2 mi Calm Calm - N/A   Mostly Cloudy
1:34 PM 33.8 °F 29.6 °F 32.0 °F 93% 29.71 in 0.8 mi West 4.6 mph - N/A   Mist
1:43 PM 33.8 °F 30.8 °F 32.0 °F 93% 29.69 in 1.0 mi West 3.5 mph - N/A   Mostly Cloudy
1:53 PM 33.1 °F - 32.0 °F 96% 29.71 in 1.0 mi Calm Calm - N/A   Mostly Cloudy
2:53 PM 34.0 °F - 33.1 °F 96% 29.73 in 1.0 mi Calm Calm - N/A   Overcast
3:45 PM 33.8 °F 28.6 °F 33.8 °F 100% 29.71 in 1.0 mi South 5.8 mph - N/A   Mist
3:53 PM 34.0 °F 29.8 °F 33.1 °F 96% 29.74 in 1.0 mi South 4.6 mph - N/A   Mist
4:00 PM 33.8 °F 30.8 °F 33.8 °F 100% 29.70 in 0.2 mi SSE 3.5 mph - N/A Fog Fog
4:16 PM 33.8 °F - 33.8 °F 100% 29.69 in 0.2 mi Calm Calm - N/A Fog Fog
4:37 PM 33.8 °F - 33.8 °F 100% 29.69 in 0.2 mi Calm Calm - N/A Fog Fog
4:51 PM 33.8 °F 30.8 °F 33.8 °F 100% 29.69 in 0.2 mi WSW 3.5 mph - N/A Fog Fog
4:53 PM 34.0 °F 31.0 °F 33.1 °F 96% 29.73 in 0.2 mi West 3.5 mph - N/A Fog Fog
5:07 PM 33.8 °F 28.6 °F 33.8 °F 100% 29.70 in 0.2 mi WNW 5.8 mph - N/A Fog Fog
5:17 PM 33.8 °F 29.6 °F 33.8 °F 100% 29.70 in 0.2 mi West 4.6 mph - N/A Fog Fog
5:25 PM 33.8 °F 30.8 °F 33.8 °F 100% 29.70 in 0.2 mi SW 3.5 mph - N/A Fog Fog
5:53 PM 34.0 °F 28.8 °F 34.0 °F 100% 29.73 in 0.2 mi SE 5.8 mph - N/A Fog Fog
6:53 PM 34.0 °F 29.8 °F 34.0 °F 100% 29.72 in 0.2 mi SSW 4.6 mph - N/A Fog Fog
7:51 PM 35.6 °F - 33.8 °F 93% 29.65 in 0.2 mi Calm Calm - N/A Fog Fog
7:53 PM 35.1 °F - 34.0 °F 96% 29.68 in 0.2 mi Calm Calm - N/A Fog Fog
7:59 PM 35.6 °F - 33.8 °F 93% 29.65 in 1.0 mi Calm Calm - N/A   Overcast
8:03 PM 35.6 °F 32.8 °F 33.8 °F 93% 29.65 in 2.0 mi NE 3.5 mph - N/A   Overcast
8:12 PM 35.6 °F 30.7 °F 33.8 °F 93% 29.64 in 3.0 mi NNE 5.8 mph - N/A   Mostly Cloudy
8:53 PM 36.0 °F - 35.1 °F 97% 29.69 in 5.0 mi Calm Calm - 0.00 in Rain Light Rain
9:53 PM 37.0 °F 34.5 °F 36.0 °F 96% 29.65 in 7.0 mi NE 3.5 mph - 0.01 in Rain Light Rain
10:53 PM 41.0 °F - 39.0 °F 93% 29.65 in 5.0 mi Calm Calm - 0.08 in Rain Rain
11:53 PM 43.0 °F 39.5 °F 41.0 °F 93% 29.62 in 8.0 mi ENE 5.8 mph - 0.05 in Rain Light Rain